Location: Larkspur
(54.4391°N, 113.7691°W)
Time: 07:29:55
(UTC+00:00)

AIST 2D - Visible Passes

Search period start: 03 December 2023 00:00
Search period end: 13 December 2023 00:00
Orbit: 351 x 356 km, 97.0° (Epoch: 03 December)

Date Brightness Start Highest point End Pass type
(mag) Time Alt. Az. Time Alt. Az. Time Alt. Az.
05 Dec ? 14:43:41 10° E 14:45:09 13° ENE 14:46:38 10° NNE visible
08 Dec ? 14:32:35 10° ENE 14:32:40 10° ENE 14:32:46 10° ENE visible
09 Dec ? 14:56:17 10° ESE 14:58:17 18° ENE 15:00:18 10° NNE visible
12 Dec ? 14:43:07 10° E 14:44:30 13° ENE 14:45:54 10° NNE visible
